This is the latest recevied weather packets stored in our database for station/object KC3WWU. If no packets are shown the sender has not sent any weather packets the latest 10 day(s).
| Time | Temp. | Humidity | Pressure | Rain* | Wind** | Luminosity | Snow |
|---|---|---|---|---|---|---|---|
| 1778115350 | 8.89° C | 92% | 1010.3 hPa | 0 mm | - | 0 W/m² | - |
| 1778115046 | 8.89° C | 92% | 1010.2 hPa | 0 mm | - | 0 W/m² | - |
| 1778114743 | 8.89° C | 92% | 1010.4 hPa | 0 mm | - | 0 W/m² | - |
| 1778114441 | 8.89° C | 90% | 1010.3 hPa | 0 mm | - | 0 W/m² | - |
| 1778114137 | 8.89° C | 92% | 1010 hPa | 0 mm | - | 0 W/m² | - |
| 1778113832 | 8.89° C | 93% | 1009.8 hPa | 0 mm | - | 0 W/m² | - |
| 1778113529 | 8.89° C | 93% | 1009.9 hPa | 0 mm | - | 0 W/m² | - |
| 1778113225 | 8.89° C | 92% | 1010.3 hPa | 0 mm | - | 0 W/m² | - |
| 1778112921 | 8.89° C | 91% | 1009.9 hPa | 0 mm | - | 1 W/m² | - |
| 1778112619 | 8.89° C | 91% | 1009.8 hPa | 0 mm | - | 1 W/m² | - |
| 1778112314 | 8.89° C | 91% | 1009.8 hPa | 0 mm | - | 3 W/m² | - |
| 1778112010 | 8.89° C | 92% | 1009.6 hPa | 0 mm | - | 5 W/m² | - |
| 1778111708 | 8.89° C | 91% | 1009.4 hPa | 0 mm | - | 7 W/m² | - |
| 1778111403 | 8.89° C | 90% | 1009.3 hPa | 0 mm | - | 10 W/m² | - |
| 1778111101 | 8.89° C | 90% | 1009.3 hPa | 0 mm | - | 10 W/m² | - |
| 1778110799 | 8.89° C | 91% | 1009.3 hPa | 0 mm | - | 8 W/m² | - |
| 1778110496 | 8.89° C | 91% | 1009.3 hPa | 0 mm | - | 10 W/m² | - |
| 1778110191 | 8.89° C | 91% | 1009.1 hPa | 0 mm | - | 16 W/m² | - |
| 1778109888 | 8.89° C | 92% | 1009.1 hPa | 0 mm | - | 24 W/m² | - |
| 1778109583 | 8.89° C | 92% | 1009.2 hPa | 0 mm | - | 19 W/m² | - |
| 1778109281 | 8.89° C | 92% | 1009.1 hPa | 0 mm | - | 19 W/m² | - |
| 1778108978 | 8.89° C | 92% | 1008.8 hPa | 0 mm | - | 18 W/m² | - |
| 1778108674 | 8.89° C | 92% | 1008.9 hPa | 0 mm | - | 18 W/m² | - |
| 1778108371 | 9.44° C | 93% | 1008.9 hPa | 0 mm | - | 17 W/m² | - |
| 1778108068 | 9.44° C | 92% | 1008.8 hPa | 0 mm | - | 23 W/m² | - |
* Rain latest hour (hover to see other rain measurements)
** Current wind speed in m/s (hover to see current wind gust speed)